When you browse on this site, cookies collect data to enhance your experience and personalize the content and advertising you see.
Visit our Privacy Policy to learn more. By continuing to use the site, you agree to this use of cookies and data.
  • Em Portugal
  • Lista de países
  • Para 7 dias
  • Temperatura da água
  • Mapas de satélite
  • Mapa do tempo
  • Widgets de tempo
  • user-avatar
    Iniciar Sessão

    Previsão horária em Abomey

    Hoje, 27 Maio, Segunda-feira

    Tempo Temperatura Precipitação Vento Pressão Humidade
    00:00 +27°C° 0 mm 2 m/s 739 mmHg 81%
    01:00 +27°C° 0 mm 2 m/s 739 mmHg 81%
    02:00 +27°C° 0 mm 2 m/s 739 mmHg 82%
    03:00 +27°C° 0 mm 2 m/s 738 mmHg 82%
    04:00 +27°C° 0 mm 2 m/s 739 mmHg 83%
    05:00 +27°C° 0 mm 2 m/s 739 mmHg 84%
    06:00 +27°C° 0 mm 1 m/s 739 mmHg 86%
    07:00 +29°C° 0 mm 2 m/s 739 mmHg 78%
    08:00 +30°C° 0 mm 3 m/s 739 mmHg 70%
    09:00 +33°C° 0 mm 3 m/s 739 mmHg 62%
    10:00 +34°C° 0 mm 3 m/s 739 mmHg 57%
    11:00 +36°C° 0 mm 3 m/s 739 mmHg 51%
    12:00 +37°C° 0 mm 4 m/s 738 mmHg 45%
    13:00 +37°C° 0 mm 4 m/s 738 mmHg 45%
    14:00 +37°C° 0 mm 4 m/s 737 mmHg 46%
    15:00 +37°C° 0 mm 4 m/s 736 mmHg 46%
    16:00 +35°C° 0 mm 4 m/s 737 mmHg 50%
    17:00 +34°C° 0 mm 4 m/s 737 mmHg 53%
    18:00 +33°C° 0 mm 4 m/s 737 mmHg 57%
    19:00 +32°C° 0.1 mm 4 m/s 737 mmHg 64%
    20:00 +29°C° 0.1 mm 4 m/s 738 mmHg 71%
    21:00 +28°C° 0.1 mm 4 m/s 738 mmHg 78%
    22:00 +28°C° 0 mm 4 m/s 738 mmHg 79%
    23:00 +28°C° 0 mm 4 m/s 738 mmHg 81%

    Amanhã, 28 Maio, Terça-feira

    Tempo Temperatura Precipitação Vento Pressão Humidade
    00:00 +27°C° 0 mm 4 m/s 738 mmHg 82%
    01:00 +27°C° 0 mm 3 m/s 738 mmHg 83%
    02:00 +27°C° 0 mm 2 m/s 738 mmHg 84%
    03:00 +26°C° 0 mm 1 m/s 738 mmHg 86%
    04:00 +26°C° 0 mm 1 m/s 738 mmHg 87%
    05:00 +26°C° 0 mm 1 m/s 738 mmHg 88%
    06:00 +26°C° 0 mm 1 m/s 739 mmHg 89%
    07:00 +28°C° 0 mm 2 m/s 739 mmHg 79%
    08:00 +30°C° 0 mm 3 m/s 739 mmHg 69%
    09:00 +33°C° 0 mm 3 m/s 740 mmHg 59%
    10:00 +35°C° 0 mm 3 m/s 739 mmHg 52%
    11:00 +37°C° 0 mm 3 m/s 739 mmHg 46%
    12:00 +38°C° 0 mm 3 m/s 739 mmHg 39%
    13:00 +38°C° 0 mm 3 m/s 738 mmHg 40%
    14:00 +38°C° 0 mm 3 m/s 737 mmHg 41%
    15:00 +37°C° 0 mm 4 m/s 737 mmHg 42%
    16:00 +36°C° 0 mm 4 m/s 737 mmHg 47%
    17:00 +35°C° 0 mm 4 m/s 737 mmHg 51%
    18:00 +34°C° 0 mm 4 m/s 737 mmHg 56%
    19:00 +32°C° 0.6 mm 4 m/s 737 mmHg 65%
    20:00 +29°C° 0.6 mm 4 m/s 738 mmHg 74%
    21:00 +28°C° 0.6 mm 3 m/s 738 mmHg 82%
    22:00 +27°C° 0 mm 3 m/s 738 mmHg 83%
    23:00 +27°C° 0 mm 3 m/s 738 mmHg 84%

    Depois de amanhã, 29 Maio, Quarta-feira

    Tempo Temperatura Precipitação Vento Pressão Humidade
    00:00 +27°C° 0 mm 3 m/s 739 mmHg 85%
    01:00 +27°C° 0 mm 3 m/s 738 mmHg 86%
    02:00 +27°C° 0 mm 2 m/s 738 mmHg 86%
    03:00 +27°C° 0 mm 2 m/s 738 mmHg 87%
    04:00 +26°C° 0 mm 2 m/s 738 mmHg 87%
    05:00 +26°C° 0 mm 2 m/s 738 mmHg 87%
    06:00 +26°C° 0 mm 2 m/s 738 mmHg 86%
    07:00 +28°C° 0 mm 2 m/s 739 mmHg 77%
    08:00 +30°C° 0 mm 3 m/s 740 mmHg 68%
    09:00 +33°C° 0 mm 3 m/s 740 mmHg 58%
    10:00 +34°C° 0 mm 3 m/s 740 mmHg 53%
    11:00 +36°C° 0 mm 3 m/s 739 mmHg 47%
    12:00 +37°C° 0 mm 3 m/s 739 mmHg 42%
    13:00 +38°C° 0 mm 3 m/s 738 mmHg 41%
    14:00 +38°C° 0 mm 3 m/s 737 mmHg 39%
    15:00 +38°C° 0 mm 3 m/s 736 mmHg 38%
    16:00 +36°C° 0 mm 3 m/s 736 mmHg 47%
    17:00 +34°C° 0 mm 4 m/s 737 mmHg 55%
    18:00 +32°C° 0 mm 5 m/s 737 mmHg 64%
    19:00 +30°C° 0 mm 5 m/s 738 mmHg 68%
    20:00 +29°C° 0 mm 5 m/s 738 mmHg 72%
    21:00 +28°C° 0 mm 4 m/s 739 mmHg 76%
    22:00 +28°C° 0 mm 4 m/s 738 mmHg 77%
    23:00 +28°C° 0 mm 4 m/s 738 mmHg 79%

    30 Maio, Quinta-feira

    Tempo Temperatura Precipitação Vento Pressão Humidade
    00:00 +28°C° 0 mm 4 m/s 738 mmHg 80%
    01:00 +28°C° 0 mm 4 m/s 738 mmHg 81%
    02:00 +28°C° 0 mm 3 m/s 738 mmHg 81%
    03:00 +27°C° 0 mm 3 m/s 737 mmHg 82%
    04:00 +27°C° 0 mm 2 m/s 738 mmHg 83%
    05:00 +27°C° 0 mm 2 m/s 738 mmHg 83%
    06:00 +27°C° 0 mm 2 m/s 739 mmHg 84%
    07:00 +28°C° 0.1 mm 2 m/s 739 mmHg 79%
    08:00 +29°C° 0.1 mm 3 m/s 740 mmHg 75%
    09:00 +30°C° 0.1 mm 3 m/s 740 mmHg 70%
    10:00 +30°C° 2.3 mm 3 m/s 740 mmHg 71%
    11:00 +30°C° 2.3 mm 3 m/s 739 mmHg 72%
    12:00 +30°C° 2.3 mm 3 m/s 739 mmHg 73%
    13:00 +30°C° 1 mm 3 m/s 738 mmHg 73%
    14:00 +30°C° 1 mm 4 m/s 737 mmHg 73%
    15:00 +30°C° 1 mm 4 m/s 737 mmHg 72%
    16:00 +30°C° 0 mm 3 m/s 737 mmHg 73%
    17:00 +29°C° 0 mm 3 m/s 737 mmHg 75%
    18:00 +29°C° 0 mm 2 m/s 738 mmHg 76%
    19:00 +28°C° 0 mm 3 m/s 738 mmHg 78%
    20:00 +28°C° 0 mm 3 m/s 739 mmHg 80%
    21:00 +28°C° 0 mm 4 m/s 739 mmHg 82%
    22:00 +27°C° 0 mm 3 m/s 739 mmHg 83%
    23:00 +27°C° 0 mm 2 m/s 739 mmHg 85%

    31 Maio, Sexta-feira

    Tempo Temperatura Precipitação Vento Pressão Humidade
    00:00 +27°C° 0 mm 2 m/s 739 mmHg 87%
    01:00 +26°C° 0.1 mm 2 m/s 738 mmHg 88%
    02:00 +26°C° 0.1 mm 2 m/s 738 mmHg 90%
    03:00 +26°C° 0.1 mm 1 m/s 737 mmHg 92%
    04:00 +26°C° 0 mm 1 m/s 738 mmHg 92%
    05:00 +26°C° 0 mm 1 m/s 738 mmHg 91%
    06:00 +26°C° 0 mm 1 m/s 738 mmHg 91%
    07:00 +27°C° 0 mm 2 m/s 739 mmHg 83%
    08:00 +29°C° 0 mm 2 m/s 739 mmHg 76%
    09:00 +30°C° 0 mm 2 m/s 740 mmHg 68%
    10:00 +31°C° 0.6 mm 3 m/s 739 mmHg 67%
    11:00 +31°C° 0.6 mm 3 m/s 739 mmHg 66%
    12:00 +33°C° 0.6 mm 3 m/s 738 mmHg 65%
    13:00 +31°C° 1.2 mm 3 m/s 738 mmHg 70%
    14:00 +30°C° 1.2 mm 3 m/s 737 mmHg 75%
    15:00 +29°C° 1.2 mm 3 m/s 737 mmHg 80%
    16:00 +28°C° 0.1 mm 3 m/s 737 mmHg 83%
    17:00 +27°C° 0.1 mm 2 m/s 737 mmHg 86%
    18:00 +27°C° 0.1 mm 2 m/s 738 mmHg 89%
    19:00 +26°C° 0 mm 2 m/s 738 mmHg 90%
    20:00 +26°C° 0 mm 2 m/s 739 mmHg 92%
    21:00 +26°C° 0 mm 1 m/s 739 mmHg 93%
    22:00 +26°C° 0 mm 1 m/s 739 mmHg 93%
    23:00 +26°C° 0 mm 2 m/s 739 mmHg 93%

    1 Junho, Sábado

    Tempo Temperatura Precipitação Vento Pressão Humidade
    00:00 +25°C° 0 mm 2 m/s 738 mmHg 93%
    01:00 +25°C° 0 mm 1 m/s 738 mmHg 94%
    02:00 +25°C° 0 mm 1 m/s 737 mmHg 95%
    03:00 +25°C° 0 mm 1 m/s 737 mmHg 95%
    04:00 +25°C° 0 mm 1 m/s 737 mmHg 95%
    05:00 +25°C° 0 mm 1 m/s 738 mmHg 95%
    06:00 +25°C° 0 mm 1 m/s 738 mmHg 95%
    07:00 +26°C° 0 mm 1 m/s 739 mmHg 87%
    08:00 +28°C° 0 mm 2 m/s 739 mmHg 79%
    09:00 +30°C° 0 mm 2 m/s 739 mmHg 71%
    10:00 +31°C° 0 mm 2 m/s 739 mmHg 64%
    11:00 +32°C° 0 mm 2 m/s 738 mmHg 58%
    12:00 +35°C° 0 mm 2 m/s 738 mmHg 52%
    13:00 +34°C° 1.4 mm 3 m/s 737 mmHg 57%
    14:00 +33°C° 1.4 mm 3 m/s 737 mmHg 62%
    15:00 +33°C° 1.4 mm 3 m/s 736 mmHg 66%
    16:00 +30°C° 3 mm 3 m/s 737 mmHg 75%
    17:00 +28°C° 3 mm 3 m/s 737 mmHg 83%
    18:00 +26°C° 3 mm 3 m/s 738 mmHg 91%
    19:00 +26°C° 0 mm 2 m/s 738 mmHg 92%
    20:00 +26°C° 0 mm 2 m/s 739 mmHg 93%
    21:00 +26°C° 0 mm 2 m/s 739 mmHg 94%
    22:00 +26°C° 0 mm 2 m/s 739 mmHg 94%
    23:00 +25°C° 0 mm 2 m/s 738 mmHg 94%
    Mostrar mais